SL-8 R/B, 3131

Orbit data source: Space-Track

SL-8 R/B, 3131 is space debris in LEO originally from a launch on Tue, 20 Feb 1968 UTC launched from the Plesetsk Missile And Space Complex (PKMTR). Debris objects in space refer to the collection of defunct objects orbiting the Earth. Examples of debris include non-operational satellites, rocket bodies, and fragments generated from explosions, collisions, or faulty payload assembly.

Loading next visibility...
Identifier
3131, 1968-011B
Orbit
LEO
Country
Flag of CISCIS
Related business
Manufacturer
Yuzhnoe
Mission
Spacecraft
Bus & Motor
S3, Unknown motor
Mass
1,434 kg wet, 1,434 kg dry
Launch date (UTC)
1968-02-20 (58 years ago)
Launch vehicle
Unknown
Launch site
Plesetsk Missile And Space Complex (PKMTR)
Object type
Payload
Rocket body
Debris
Shape & HBR
Unknown
Radar Cross Section
Large (>1 m²)

Expand to show TLE details & history
Last TLE update: 8 hours ago

TLE from 8 hours ago
0 SL-8 R/B
1  3131U 68011B   26036.80785140  .00000125  00000-0  36967-3 0  9996
2  3131  74.0529 309.8659 0014593 183.8403 176.2576 13.18033901788046
Epoch: 2026-02-05T19:23Z
TLE epoch observation values (Epoch: 2026-02-05T19:23:18.360Z)
Latitude
-0.00007°
Longitude
-116.91539°
Altitude
1,205.732 km
Speed
7.246 km/s
True Right ascension
20h 39m 27s
True Declination
0° 00' 00"
Sunlit
Object was in daylight at epoch
Visualization orbit readout
Latitude
Unknown
Longitude
Unknown
Altitude
Unknown
Speed
Unknown
Apparent Right ascension
Unknown
Apparent Declination
Unknown
Sunlit
N/A
Visualization observer readout
Local Sidereal Time
05:35:15
Azimuth
Unknown
Elevation
Unknown
Doppler factor
Unknown
Orbital elements
Apogee altitude
1,201.038 km
Perigee altitude
1,178.95 km
Semi-major axis
7,568.131 km
Eccentricity
0.00146
Inclination
74.0529°
RAAN
309.8659°
Arg. of periapsis
183.8403°
True anomaly
176.26849°
Mean anomaly
176.2576°
Eccentric anomaly
176.26305°
Mean motion
3.29655 °/min
Orbital period
109.2 mins
BSTAR
0.00036967
Loading maneuver chart data...
Computing Atmospheric mass density...
Loading historical data...
Loading historical data...
Loading historical data...
Loading historical data...
Loading historical data...
Loading historical data...
Loading historical data...
Other satellites on launch #11 in the year 1968 (1968-02-20 UTC)

Documentation

Showing up to 5 results
|